This is the latest recevied weather packets stored in our database for station/object SQ6PCH-10. If no packets are shown the sender has not sent any weather packets the latest 10 day(s).
| Time | Temp. | Humidity | Pressure | Rain* | Wind** | Luminosity | Snow |
|---|---|---|---|---|---|---|---|
| 1777667859 | 11.67° C | 58% | 1010.6 hPa | - | - | - | - |
| 1777667259 | 11.67° C | 57% | 1010.5 hPa | - | - | - | - |
| 1777666658 | 11.67° C | 57% | 1010.5 hPa | - | - | - | - |
| 1777666058 | 12.22° C | 53% | 1010.5 hPa | - | - | - | - |
| 1777665458 | 12.78° C | 53% | 1010.5 hPa | - | - | - | - |
| 1777664858 | 13.33° C | 51% | 1010.5 hPa | - | - | - | - |
| 1777664258 | 13.33° C | 50% | 1010.5 hPa | - | - | - | - |
| 1777663658 | 13.89° C | 47% | 1010.5 hPa | - | - | - | - |
| 1777663057 | 14.44° C | 44% | 1010.5 hPa | - | - | - | - |
| 1777662457 | 14.44° C | 44% | 1010.4 hPa | - | - | - | - |
| 1777661857 | 15° C | 43% | 1010.4 hPa | - | - | - | - |
| 1777661257 | 15° C | 43% | 1010.4 hPa | - | - | - | - |
| 1777660657 | 15.56° C | 42% | 1010.3 hPa | - | - | - | - |
| 1777660056 | 16.11° C | 41% | 1010.3 hPa | - | - | - | - |
| 1777659456 | 16.67° C | 41% | 1010.2 hPa | - | - | - | - |
| 1777658856 | 17.22° C | 39% | 1010.1 hPa | - | - | - | - |
| 1777658256 | 17.78° C | 37% | 1010 hPa | - | - | - | - |
| 1777657656 | 18.89° C | 34% | 1010.1 hPa | - | - | - | - |
| 1777657056 | 21.11° C | 30% | 1010 hPa | - | - | - | - |
| 1777656455 | 21.67° C | 29% | 1010 hPa | - | - | - | - |
| 1777655855 | 21.67° C | 29% | 1009.8 hPa | - | - | - | - |
| 1777655255 | 21.11° C | 29% | 1009.9 hPa | - | - | - | - |
| 1777654655 | 21.67° C | 28% | 1010 hPa | - | - | - | - |
| 1777654055 | 23.33° C | 25% | 1010 hPa | - | - | - | - |
| 1777653455 | 22.78° C | 26% | 1010.1 hPa | - | - | - | - |
* Rain since midnight (hover to see other rain measurements)
** Current wind speed in m/s (hover to see current wind gust speed)